Weather History for Madera, CA

Change the Weather History Date:

Saturday, June 22, 2013

  Actual Average Record
Temperature  
Mean Temperature 73 °F 76 °F  
Max Temperature 93 °F 93 °F 105 °F (2001)
Min Temperature 53 °F 59 °F 51 °F (2003)
Degree Days  
Heating Degree Days 0    
Month to date heating degree days 0  
Since 1 June heating degree days 0  
Since 1 July heating degree days 2301  
Cooling Degree Days 8    
Month to date cooling degree days 219  
Year to date cooling degree days 396  
Since 1 June cooling degree days 219  
Growing Degree Days 24 (Base 50)    
Moisture  
Dew Point 44 °F    
Average Humidity 44    
Maximum Humidity 72    
Minimum Humidity 15    
Precipitation  
Precipitation 0.00 in 0.00 in 0.00 in (2014)
Month to date precipitation T 0.17  
Year to date precipitation 3.52 7.98  
Since 1 July precipitation 8.22 12.00  
Snow  
Snow 0.00 in - - ()
Month to date snowfall 0.0  
Since 1 June snowfall 0.0  
Since 1 July snowfall 0.0  
Snow Depth 0.00 in    
Sea Level Pressure  
Sea Level Pressure 29.84 in    
Wind  
Wind Speed 7 mph (WNW)    
Max Wind Speed 14 mph    
Max Gust Speed 17 mph    
Visibility 10 miles    
Events      
T = Trace of Precipitation, MM = Missing Value Source: NWS Daily Summary

Daily Weather History Graph

Daily Weather History Graph

Search for Another Location

Airport:

Trip Planner

Search our weather history database for the weather conditions in past years. The results will help you decide how hot, cold, wet, or windy it might be!

Date:

Astronomy

Jun. 22, 2013 Rise Set
Actual Time 5:41 AM PDT 8:23 PM PDT
Civil Twilight 5:10 AM PDT 8:54 PM PDT
Nautical Twilight 4:32 AM PDT 9:32 PM PDT
Astronomical Twilight 3:48 AM PDT 10:16 PM PDT
Moon 7:45 PM PDT (6/22) 4:57 AM PDT (6/22)
Length of Visible Light 15h 43m
Length of Day
14h 42m
Waxing Gibbous, 99% of the Moon is Illuminated
Jun 22
Waxing Gibbous
Jun 23
Full
Jun 29
Last Quarter
Jul 8
New
Jul 15
First Quarter

Hourly Weather History & Observations

Time (PDT) Temp. Dew Point Humidity Pressure Visibility Wind Dir Wind Speed Gust Speed Precip Events Conditions
12:53 AM 64.0 °F 41.0 °F 43% 29.86 in 10.0 mi WNW 4.6 mph - N/A   Clear
1:53 AM 61.0 °F 43.0 °F 52% 29.85 in 10.0 mi West 8.1 mph - N/A   Clear
2:53 AM 60.1 °F 44.1 °F 55% 29.85 in 10.0 mi Calm Calm - N/A   Clear
3:53 AM 57.0 °F 43.0 °F 59% 29.85 in 10.0 mi NW 4.6 mph - N/A   Clear
4:53 AM 55.0 °F 46.0 °F 72% 29.85 in 10.0 mi WSW 3.5 mph - N/A   Clear
5:53 AM 57.0 °F 46.0 °F 67% 29.86 in 10.0 mi Calm Calm - N/A   Clear
6:53 AM 61.0 °F 46.0 °F 58% 29.87 in 10.0 mi Calm Calm - N/A   Clear
7:53 AM 66.0 °F 46.9 °F 50% 29.88 in 10.0 mi WNW 5.8 mph - N/A   Clear
8:53 AM 73.0 °F 48.0 °F 41% 29.90 in 10.0 mi WNW 9.2 mph - N/A   Clear
9:53 AM 77.0 °F 46.0 °F 33% 29.90 in 10.0 mi WNW 8.1 mph - N/A   Clear
10:53 AM 81.0 °F 46.0 °F 29% 29.90 in 10.0 mi NW 8.1 mph - N/A   Clear
11:53 AM 84.9 °F 44.1 °F 24% 29.89 in 10.0 mi NW 8.1 mph - N/A   Clear
12:53 PM 87.1 °F 39.0 °F 18% 29.87 in 10.0 mi Variable 3.5 mph - N/A   Clear
1:53 PM 90.0 °F 37.9 °F 16% 29.86 in 10.0 mi West 9.2 mph - N/A   Clear
2:53 PM 91.0 °F 39.0 °F 16% 29.84 in 10.0 mi Variable 6.9 mph - N/A   Clear
3:53 PM 91.9 °F 39.0 °F 16% 29.82 in 10.0 mi West 5.8 mph - N/A   Clear
4:53 PM 93.0 °F 39.0 °F 15% 29.80 in 10.0 mi NW 10.4 mph - N/A   Clear
5:53 PM 91.9 °F 37.9 °F 15% 29.77 in 10.0 mi WNW 10.4 mph - N/A   Clear
6:53 PM 90.0 °F 41.0 °F 18% 29.77 in 10.0 mi WNW 9.2 mph - N/A   Clear
7:53 PM 84.9 °F 46.0 °F 26% 29.77 in 10.0 mi WNW 5.8 mph - N/A   Clear
8:53 PM 78.1 °F 48.0 °F 35% 29.77 in 10.0 mi WNW 8.1 mph - N/A   Clear
9:53 PM 75.0 °F 48.9 °F 40% 29.80 in 10.0 mi WNW 6.9 mph - N/A   Clear
10:53 PM 73.0 °F 48.0 °F 41% 29.81 in 10.0 mi NW 6.9 mph - N/A   Clear
11:53 PM 71.1 °F 43.0 °F 36% 29.81 in 10.0 mi WNW 8.1 mph - N/A   Clear